This is the latest recevied weather packets stored in our database for station/object KB2EAR-13. If no packets are shown the sender has not sent any weather packets the latest 10 day(s).
| Time | Temp. | Humidity | Pressure | Rain* | Wind** | Luminosity | Snow |
|---|---|---|---|---|---|---|---|
| 1788314118 | 21.67° C | 96% | 1016.5 hPa | 0 mm | - | - | - |
| 1788313818 | 21.67° C | 96% | 1016.2 hPa | 0 mm | - | - | - |
| 1788313517 | 21.67° C | 96% | 1016 hPa | 0 mm | - | - | - |
| 1788313218 | 21.67° C | 96% | 1016 hPa | 0 mm | - | - | - |
| 1788312918 | 21.67° C | 96% | 1015.9 hPa | 0 mm | - | - | - |
| 1788312618 | 21.67° C | 96% | 1015.7 hPa | 0 mm | - | - | - |
| 1788312318 | 21.67° C | 96% | 1015.8 hPa | 0 mm | - | - | - |
| 1788312018 | 21.67° C | 95% | 1015.9 hPa | 0 mm | - | - | - |
| 1788311718 | 21.67° C | 95% | 1015.8 hPa | 0 mm | - | - | - |
| 1788311418 | 21.67° C | 95% | 1015.8 hPa | 0.25 mm | - | - | - |
| 1788311117 | 21.67° C | 95% | 1015.5 hPa | 0.51 mm | - | - | - |
| 1788310817 | 21.67° C | 95% | 1015.2 hPa | 1.27 mm | - | - | - |
| 1788310517 | 21.67° C | 95% | 1015 hPa | 4.57 mm | - | - | - |
| 1788310217 | 22.22° C | 95% | 1015 hPa | 4.83 mm | - | - | - |
| 1788309917 | 22.22° C | 95% | 1015.3 hPa | 4.83 mm | - | - | - |
| 1788309618 | 22.22° C | 94% | 1015.5 hPa | 4.83 mm | - | - | - |
| 1788309318 | 22.22° C | 94% | 1015.3 hPa | 4.83 mm | - | - | - |
| 1788309038 | 22.22° C | 94% | 1015.4 hPa | 4.83 mm | - | - | - |
| 1788308717 | 22.22° C | 93% | 1015.4 hPa | 4.83 mm | - | - | - |
| 1788308418 | 22.22° C | 93% | 1015.4 hPa | 4.83 mm | - | - | - |
| 1788308118 | 22.22° C | 92% | 1015.2 hPa | 4.83 mm | - | - | - |
| 1788307818 | 22.78° C | 91% | 1014.9 hPa | 4.57 mm | - | - | - |
| 1788307518 | 23.33° C | 89% | 1014.8 hPa | 4.32 mm | - | - | - |
| 1788307218 | 23.89° C | 88% | 1014.8 hPa | 3.56 mm | - | - | - |
| 1788306917 | 25° C | 87% | 1014.8 hPa | 0.25 mm | - | - | - |
* Rain latest hour (hover to see other rain measurements)
** Current wind speed in m/s (hover to see current wind gust speed)